This demonstration page uses our WeatherBlox Daily Observations layout. Learn more.

Left ArrowRight Arrow

Hourly Observations for January 12, 2020

Temp ( °F °C ) Dew Point ( °F °C ) Humidity (%) Winds ( mph kmh ) Pressure ( in mb ) Visibility ( mi km ) Precip ( " mm )
12:53 am 00:53 Cloudy 11 -11.7 6 -14.4 81 81 W 8 13 29.74 1007 10 16 0.00 0.00
1:53 am 01:53 Cloudy 11 -11.7 5 -15 77 77 WNW 10 17 29.76 1008 10 16 0.00 0.00
2:32 am 02:32 Mostly Cloudy 10 -12.2 4 -15.6 76 76 NW 16 26 29.93 1014 10 16 0.00 0.00
2:53 am 02:53 Cloudy 9 -12.8 3 -16.1 77 77 WNW 15 24 29.81 1010 10 16 0.00 0.00
3:02 am 03:02 Cloudy 8 -13.3 2 -16.7 76 76 WNW 12 19 29.96 1014 10 16 0.00 0.00
3:11 am 03:11 Cloudy 8 -13.3 2 -16.7 76 76 WNW 14 22 29.97 1015 10 16 0.00 0.00
3:53 am 03:53 Cloudy 7 -13.9 1 -17.2 76 76 WNW 16 26 29.86 1011 10 16 0.00 0.00
4:53 am 04:53 Cloudy 7 -13.9 0 -17.8 73 73 WNW 15 24 29.91 1013 10 16 0.00 0.00
5:43 am 05:43 Cloudy with Light Snow 6 -14.4 0 -17.8 76 76 NW 15 24 30.07 1018 2 3 0.00 0.00
5:53 am 05:53 Cloudy with Light Snow 6 -14.4 -1 -18.3 73 73 NW 18 30 29.96 1015 3 4 0.00 0.00
6:01 am 06:01 Cloudy with Light Snow 5 -15 -1 -18.3 76 76 NW 14 22 30.10 1019 4 6 0.00 0.00
6:53 am 06:53 Cloudy 4 -15.6 -4 -20 69 69 NW 15 24 30.01 1016 10 16 0.01 0.25
7:53 am 07:53 Cloudy 2 -16.7 -6 -21.1 69 69 NW 18 30 30.05 1018 9 14 0.00 0.00
8:47 am 08:47 Cloudy with Light Snow 1 -17 -8 -22 65 65 NW 14 22 30.20 1023 2 3 0.00 0.00
8:53 am 08:53 Cloudy with Light Snow 2 -16.7 -6 -21.1 69 69 NW 13 20 30.08 1019 1 2 0.00 0.00
9:05 am 09:05 Cloudy with Light Snow 2 -16.7 -6 -21.1 69 69 NW 13 20 30.21 1023 2 2 0.00 0.00
9:20 am 09:20 Mostly Cloudy with Light Snow 1 -17 -4 -20 78 78 NW 10 17 30.21 1023 1 1 0.00 0.00
9:39 am 09:39 Cloudy with Light Snow 2 -16.7 -4 -20 76 76 NW 10 17 30.21 1023 1 2 0.01 0.25
9:45 am 09:45 Cloudy with Light Snow 2 -16.7 -4 -20 76 76 NW 12 19 30.22 1023 2 3 0.01 0.25
9:53 am 09:53 Cloudy with Light Snow 2 -16.7 -4 -20 76 76 NNW 12 19 30.09 1019 3 4 0.01 0.25
10:03 am 10:03 Cloudy with Haze 2 -16.7 -6 -21.1 69 69 NNW 14 22 30.22 1023 4 6 0.00 0.00
10:18 am 10:18 Cloudy with Haze 2 -16.7 -4 -20 76 76 NW 9 15 30.22 1023 3 5 0.00 0.00
10:27 am 10:27 Cloudy 2 -16.7 -4 -20 76 76 NW 10 17 30.23 1024 7 11 0.00 0.00
10:53 am 10:53 Cloudy with Light Snow 2 -16.7 -6 -21.1 69 69 NNW 12 19 30.11 1020 4 6 0.00 0.00
11:53 am 11:53 Cloudy with Haze 3 -16.1 -4 -20 72 72 NW 12 19 30.11 1020 3 4 0.00 0.00
12:05 pm 12:05 Cloudy with Haze 2 -16.7 -6 -21.1 69 69 NW 13 20 30.23 1024 5 8 0.00 0.00
12:34 pm 12:34 Cloudy 2 -16.7 -7 -21.7 65 65 NNW 12 19 30.22 1023 9 14 0.00 0.00
12:53 pm 12:53 Cloudy 2 -16.7 -7 -21.7 65 65 NW 10 17 30.09 1019 9 14 0.00 0.00
1:48 pm 13:48 Cloudy 1 -17 -6 -21 71 71 NNW 9 15 30.21 1023 10 16 0.00 0.00
1:53 pm 13:53 Cloudy 2 -16.7 -6 -21.1 69 69 NW 12 19 30.09 1019 10 16 0.00 0.00
2:03 pm 14:03 Cloudy 2 -16.7 -6 -21.1 69 69 NW 10 17 30.21 1023 10 16 0.00 0.00
2:53 pm 14:53 Cloudy with Haze 1 -17.2 -6 -21.1 72 72 NNW 12 19 30.10 1019 5 8 0.00 0.00
3:20 pm 15:20 Cloudy with Light Snow 1 -17.2 -6 -21.1 72 72 N 10 17 30.23 1024 3 4 0.00 0.00
3:28 pm 15:28 Cloudy with Haze 1 -17 -6 -21 71 71 N 9 15 30.23 1024 1 2 0.00 0.00
3:42 pm 15:42 Mostly Cloudy with Light Snow 1 -17.2 -5 -20.6 75 75 NNW 8 13 30.24 1024 1 1 0.00 0.00
3:53 pm 15:53 Mostly Cloudy with Light Snow 1 -17.2 -5 -20.6 75 75 NNW 8 13 30.11 1020 1 1 0.01 0.25
4:00 pm 16:00 Cloudy with Light Snow 1 -17.2 -5 -20.6 75 75 NNW 9 15 30.24 1024 2 2 0.00 0.00
4:24 pm 16:24 Cloudy with Haze 0 -17.8 -7 -21.7 72 72 NNW 9 15 30.24 1024 3 5 0.00 0.00
4:51 pm 16:51 Cloudy with Haze 0 -18 -6 -21 78 78 NNW 8 13 30.25 1024 5 8 0.00 0.00
4:53 pm 16:53 Cloudy with Haze 0 -17.8 -6 -21.1 76 76 NNW 8 13 30.11 1020 5 8 0.00 0.00
5:36 pm 17:36 Cloudy with Light Snow 0 -18 -6 -21 78 78 N 6 9 30.25 1024 3 4 0.00 0.00
5:42 pm 17:42 Cloudy with Light Snow 0 -18 -6 -21 78 78 N 5 7 30.25 1024 1 2 0.00 0.00
5:53 pm 17:53 Cloudy with Light Snow 0 -17.8 -6 -21.1 76 76 N 8 13 30.11 1020 1 2 0.01 0.25
5:56 pm 17:56 Cloudy with Light Snow -1 -18.3 -6 -21.1 79 79 N 7 11 30.24 1024 2 2 0.00 0.00
6:06 pm 18:06 Cloudy with Light Snow -1 -18.3 -6 -21.1 79 79 NE 7 11 30.24 1024 3 5 0.00 0.00
6:27 pm 18:27 Cloudy -1 -18.3 -7 -21.7 75 75 NNE 7 11 30.24 1024 10 16 0.00 0.00
6:53 pm 18:53 Cloudy -2 -18.9 -8 -22.2 75 75 NNE 6 9 30.11 1020 10 16 0.00 0.00
7:14 pm 19:14 Cloudy with Haze -2 -18.9 -8 -22.2 75 75 NE 6 9 30.24 1024 4 6 0.00 0.00
7:36 pm 19:36 Partly Cloudy -3 -19.4 -8 -22.2 79 79 NE 6 9 30.24 1024 10 16 0.00 0.00
7:53 pm 19:53 Clear -3 -19.4 -8 -22.2 79 79 NE 6 9 30.11 1020 10 16 0.00 0.00
8:53 pm 20:53 Mostly Cloudy -4 -20 -9 -22.8 79 79 NNE 8 13 30.10 1019 10 16 0.00 0.00
9:53 pm 21:53 Cloudy -4 -20 -10 -23.3 75 75 NE 9 15 30.10 1019 10 16 0.00 0.00
10:53 pm 22:53 Cloudy -4 -20 -11 -23.9 71 71 NNE 10 17 30.09 1019 10 16 0.00 0.00
11:53 pm 23:53 Cloudy -4 -20 -10 -23.3 75 75 NNE 9 15 30.09 1019 10 16 0.00 0.00

Powered by AerisWeather